Regional Weather Roundup
Issued by NWS

Home | Current Version | Previous Version | Graphics & Text | Print | Product List | Glossary On
Versions: 1 2 3 4 5 6 7 8 9 10 11 12 13 14 15 16 17 18 19 20 21 22 23 24 25 26 27 28 29 30 31 32 33 34 35 36 37 38 39 40 41 42 43 44 45 46 47 48 49 50
944
ASUS43 KMPX 201710
RWRMN
WEATHER ROUNDUP FOR MINNESOTA
NATIONAL WEATHER SERVICE TWIN CITIES/CHANHASSEN MN
1100 AM CST TUE FEB 20 2018


NOTE: "FAIR" INDICATES FEW OR NO CLOUDS BELOW 12,000 FEET WITH NO
SIGNIFICANT WEATHER AND/OR OBSTRUCTIONS TO VISIBILITY. N/A MEANS
CURRENT SKY AND/OR WEATHER CONDITIONS ARE NOT AVAILABLE.

MNZ060>063-068>070-201800-
   Twin Cities Metro

CITY           SKY/WX    TMP DP  RH WIND       PRES   REMARKS
TWIN CITIES    CLOUDY    19  16  88 W9        29.92R WCI   8
ST PAUL        CLOUDY    19  15  84 W9        29.93R WCI   8
CRYSTAL        CLOUDY    17  12  80 W7        29.91R WCI   8
BLAINE         CLOUDY    19  16  86 W8        29.90R WCI   9
LAKEVILLE      CLOUDY    18  16  93 W9        29.92R WCI   6
EDEN PRAIRIE   CLOUDY    18  13  80 W9        29.92R WCI   7
SOUTH ST PAUL  PTSUNNY   21  17  86 NW6       29.91R WCI  13
LAKE ELMO      CLOUDY    21  19  93 W7        29.90R WCI  13
$$
MNZ001>005-007-008-013>017-022>024-027-028-201800-
   Northwest Minnesota

CITY           SKY/WX    TMP DP  RH WIND       PRES   REMARKS
BEMIDJI        LGT SNOW   6   0  75 NW10      29.93F WCI  -9
HALLOCK        CLOUDY     7   1  78 NW9       30.09F HAZE    WCI  -7
ROSEAU         LGT SNOW   7   1  78 NW13      30.02S WCI  -9
WARROAD        LGT SNOW   7   1  78 NW14      30.01S WCI -10
THIEF RVR FALL LGT SNOW   5   1  83 NW17      30.03S VSB 3/4 WCI -14
CROOKSTON      LGT SNOW   7   1  78 N22       30.07F VSB 1   WCI -14
FOSSTON        LGT SNOW   7   0  72 NW13      30.00R WCI  -9
DETROIT LAKES  LGT SNOW   9   3  78 N17       30.00R WCI -10
MOORHEAD       CLOUDY     7   1  78 N16       30.08R HAZE    WCI -11
PARK RAPIDS    LGT SNOW   9   2  73 NW10      29.92F WCI  -5
MAHNOMEN       LGT SNOW   6   1  79 N15       30.00R WCI -12
$$
MNZ006-009>011-018-025>026-201800-
   North Central Minnesota

CITY           SKY/WX    TMP DP  RH WIND       PRES   REMARKS
BAUDETTE       LGT SNOW   5  -1  76 N13       29.95F WCI -12
FLAG ISLAND    CLOUDY     3  -2  78 NW13      29.99S HAZE    WCI -14
INTL FALLS     LGT SNOW   5   0  79 N7        29.94S WCI  -7
WASKISH        LGT SNOW   7   1  78 NW7       29.96S WCI  -5
BIG FORK       LGT SNOW   9   1  72 NW5       29.91F WCI   0
LONGVILLE      LGT SNOW   9   1  72 NW5       29.92R WCI   0
GRAND RAPIDS   LGT SNOW   7   2  80 NW8       29.91F WCI  -6
CRANE LAKE     LGT SNOW   3   0  85 CALM      29.95S
ORR            LGT SNOW   3  -2  78 CALM      29.88S
COOK           LGT SNOW   5   0  78 N3        29.89F
WALKER         LGT SNOW   7   0  73 NW8       29.92F WCI  -5
$$
MNZ012-019>021-037-201800-
   Northeast Minnesota

CITY           SKY/WX    TMP DP  RH WIND       PRES   REMARKS
DULUTH         LGT SNOW   8   5  87 N12       29.84F WCI  -7
ELY            LGT SNOW   3  -2  78 N3        29.89R
HIBBING        LGT SNOW   5   0  79 N8        29.88F WCI  -8
EVELETH        LGT SNOW N/A N/A N/A N5        29.89S
DULUTH HARBOR  LGT SNOW  12   9  85 NW7       29.91F WCI   2
TWO HARBORS    CLOUDY    16   9  73 NW5       29.85S HAZE    WCI   9
GRAND MARAIS     N/A     14   6  70 VRB5      29.90R WCI   6
G MARAIS ARPRT LGT SNOW   3  -2  78 N5        29.79R WCI  -6
$$
MNZ029>031-032-039>041-046>048-054>057-064-201800-
   West Central Minnesota

CITY           SKY/WX    TMP DP  RH WIND       PRES   REMARKS
FERGUS FALLS   FAIR       7   1  78 NW16      30.04R HAZE    WCI -11
WHEATON        CLOUDY     7   0  72 NW18      30.09R HAZE    WCI -12
MORRIS         CLOUDY     9   1  72 NW20      30.03R HAZE    WCI -11
ALEXANDRIA     CLOUDY    11   4  73 NW12      29.96R WCI  -3
ELBOW LAKE     FAIR       7   1  77 W18       30.01R WCI -12
WADENA         LGT SNOW  10   3  72 NW10      29.94R WCI  -3
GLENWOOD       CLOUDY    12   7  79 NW13      29.97R WCI  -3
APPLETON       CLOUDY    10   3  72 NW16G25   30.05R HAZE    WCI  -7
BENSON         CLOUDY    10   3  72 N18       30.02R WCI  -8
ORTONVILLE     LGT SNOW   9   0  66 NW15G25   30.05R WCI  -8
MADISON          N/A     12   5  73 NW16G22   30.07R WCI  -4
WILLMAR        CLOUDY    10   7  85 NW18G24   29.99F WCI  -8
$$
MNZ033>034-036-042>043-049>051-058-059-201800-
   Central Minnesota

CITY           SKY/WX    TMP DP  RH WIND       PRES   REMARKS
ST CLOUD       CLOUDY    13   6  74 NW14      29.94R WCI  -2
SAUK CENTRE    CLOUDY    12   5  74 NW14      29.96R WCI  -4
PAYNESVILLE    CLOUDY    13   8  79 NW15      29.95F WCI  -3
AITKIN         LGT SNOW   9   3  78 N6        29.90S WCI  -1
PINE RIVER     FLURRIES   9   1  72 NW8       29.97R WCI  -4
BRAINERD       LGT SNOW  12   3  67 N8        29.92S WCI   0
STAPLES        FLURRIES  10   3  72 NW8       29.94R WCI  -1
LONG PRAIRIE   FAIR      12   5  73 W9        29.95S WCI   0
LITTLE FALLS   FLURRIES  12   1  62 NW8       29.95R WCI   1
LITCHFIELD     CLOUDY    16  10  79 W14G22    29.96R WCI   1
BUFFALO        CLOUDY    16  10  78 W12       29.96R WCI   3
MAPLE LAKE     CLOUDY    16  11  80 W10       29.95R WCI   4
HUTCHINSON     FLURRIES  17  11  77 W13       29.97R WCI   3
$$
MNZ037-044-045-052-053-201800-
   East Central Minnesota

CITY           SKY/WX    TMP DP  RH WIND       PRES   REMARKS
PRINCETON      CLOUDY    16   9  73 NW6       29.91R WCI   7
MORA           CLOUDY    14   9  79 NW8       29.92R WCI   3
CAMBRIDGE      FLURRIES  16   9  73 NW8       29.92R WCI   5
RUSH CITY      FLURRIES  15  11  86 NW7       29.91R WCI   5
MOOSE LAKE     FLURRIES  12   7  79 N8        29.85F WCI   1
HINCKLEY       FLURRIES  14  10  85 N10       29.89S WCI   1
CLOQUET        LGT SNOW   9   3  78 N15       29.84F WCI  -8
MCGREGOR       CLOUDY    10   5  79 N9        29.90F WCI  -2
$$
MNZ071>073-080-081-089-090-097-098-201800-
   Southwest Minnesota

CITY           SKY/WX    TMP DP  RH WIND       PRES   REMARKS
MONTEVIDEO     CLOUDY    12   5  73 N14       30.03S WCI  -3
GRANITE FALLS  MOSUNNY   12   6  76 W18       30.04S WCI  -6
CANBY          CLOUDY    10   3  75 W18G26    30.07R WCI  -8
MARSHALL       MOSUNNY    8   2  76 NW20      30.03R WCI -11
REDWOOD FALLS  FLURRIES  13   8  81 NW15      29.99S WCI  -3
OLIVIA         LGT SNOW  12   9  85 NW18G25   29.99R WCI  -5
PIPESTONE      CLOUDY     7   1  78 NW13G24   30.00R WCI  -9
WINDOM         CLOUDY    10  -2  56 CALM      30.00R HAZE
WORTHINGTON    FLURRIES  13   7  77 NW20      30.01R WCI  -5
JACKSON        LGT SNOW  12   9  85 W14       29.99R WCI  -3
TRACY          CLOUDY    10   6  84 NW15      30.02R WCI  -7
SLAYTON        CLOUDY     9   4  81 NW14      30.01R WCI  -7
$$
MNZ065>067-074>077-082>085-091>093-201800-
   South Central Minnesota

CITY           SKY/WX    TMP DP  RH WIND       PRES   REMARKS
MANKATO        FLURRIES  16  12  84 W15       29.97R WCI   1
NEW ULM        LGT SNOW  14   9  79 W17       29.99R WCI  -3
ST JAMES       FLURRIES  12   9  85 W14G21    30.02R WCI  -3
FAIRMONT       FLURRIES  15  10  80 NW22      29.99R WCI  -3
GLENCOE        FLURRIES  17  13  81 NW13      29.95R WCI   4
FARIBAULT      CLOUDY    19  16  86 W9        29.93R WCI   9
OWATONNA       CLOUDY    19  16  86 CALM      29.92R
WASECA         CLOUDY    18  14  86 W10       29.95R WCI   6
ALBERT LEA     CLOUDY    18  16  93 W6        29.94R WCI   9
$$
MNZ078>079-086>088-094>096-201800-
   Southeast Minnesota

CITY           SKY/WX    TMP DP  RH WIND       PRES   REMARKS
ROCHESTER      MIX PCPN  21  20  96 W13       29.88R WCI   9
RED WING       CLOUDY    23  18  80 NW8       29.89R WCI  14
STANTON        CLOUDY    22  18  86 W7        29.90R WCI  13
DODGE CENTER   CLOUDY    19  18  93 W8        29.88S WCI   9
WINONA         CLOUDY    27  25  93 NW9       29.89R WCI  17
AUSTIN         CLOUDY    19  18  93 W8        29.92R WCI   9
PRESTON        CLOUDY    22  20  89 W10       29.91R WCI  12
$$
ABBREVIATIONS USED IN REMARKS
   TC - TEMPERATURES IN CELSIUS
  WCI - WIND CHILL INDEX
   HX - HEAT INDEX
  VSB - VISIBILITY
$$




USA.gov is the U.S. government's official web portal to all federal, state and local government web resources and services.